Погода в Каменоломнях

Россия / Ростовская область     47°39′57″N   40°12′06″E
темп.,
°C
ветер,
м/с
пор.,
м/с
влажн.,
%
обл.,
%
осадки,
мм/ч
давл.,
гПа
погр.,
м
16 мая, вс
вс1600:00+19с33656 0.1 101257
03:00+18с377035 0.1 1012114
06:00+18св3681100 0.0 1011147
09:00+23всв4566100 0.0 1011448
12:00+26вюв6838100 0.0 1010786
15:00+27в61141100 0.0 10091293
18:00+25всв41150100 0.0 1007670
21:00+22в5165099 0.0 1007490
17 мая, пн
пн1700:00+20в6174546 0.0 1007514
03:00+18в616430 0.0 1006523
06:00+17вюв5135047 0.0 1007427
09:00+21юв6948100 0.0 1007597
12:00+24юв56465 0.0 1008890
15:00+26юв554699 0.0 10081286
18:00+24ююз245686 0.1 1008523
21:00+19ссз3681100 0.2 1008120
18 мая, вт
вт1800:00+17з4885100 0.2 1009296
03:00+16зсз498798 0.2 1008306
06:00+16з5108794 0.0 1009440
09:00+18зсз5773100 0.0 1008655
12:00+23з5555100 0.0 10081291
15:00+22зюз4559100 0.3 10081262
18:00+16зюз3592100 6.8 1009297
21:00+15зюз3989100 7.0 1010299
19 мая, ср
ср1900:00+14юз2593100 0.0 1010154
03:00+13ю389411 0.0 1010258
06:00+14ююз51095100 0.1 1010623
09:00+16юз687573 0.5 10101048
12:00+19юз7963100 1.1 10111680
15:00+18юз9126312 2.6 10121620
18:00+16юз81569100 0.2 10131520
21:00+14ююз513765 0.3 1014806
20 мая, чт
чт2000:00+13ююз614815 0.0 1015644
03:00+12юз411910 0.0 1015343
06:00+12ююз279013 0.0 1015194
09:00+17ююз45655 0.0 1016843
12:00+20ю4550100 0.0 10161357
15:00+22ююв44426 0.0 10141480
18:00+21вюв476038 0.0 1013738
21:00+18в411715 0.0 1012321